Date String (YYYY-MM-DD hh:mm:ss) UTC,Instrument flags,Ambient pressure (hPa),Sample flow (lpm),Bypass flow (lpm),Sample temperature (°C),Ambient temperature (°C),ASC tube jacket temperature (°C),LED temperature (°C),Box temperature (°C),Sample RH (%),Span deviation,Mass concentration (μg/m³),Mass concentration (μg/m³),Mass concentration (μg/m³)
DateTimeUTC,F1_M11,P_M11,Q1_M11,Q2_M11,T1_M11,T2_M11,T3_M11,T4_M11,T5_M11,U1_M11,ZSPAN_M11,X0_M11,X2_M11,X1_M11
2021-10-11 13:00:00,,0821.4,4.99,0.00,27.3,26.0,00.0,36.5,29.0,10.6,0000.0,0002.95,0002.22,0001.95
2021-10-11 13:01:00,,0821.4,5.00,0.00,27.3,26.0,00.0,36.5,28.9,10.6,0000.0,0002.97,0002.22,0001.95
2021-10-11 13:02:00,,0821.4,5.00,0.00,27.2,26.0,00.0,36.5,28.9,10.6,0000.0,0002.99,0002.19,0001.93
2021-10-11 13:03:00,,0821.4,5.00,0.00,27.2,26.0,00.0,36.4,28.9,10.6,0000.0,0002.93,0002.17,0001.93
2021-10-11 13:04:00,,0821.4,4.99,0.00,27.2,26.0,00.0,36.4,28.9,10.6,0000.0,0002.99,0002.19,0001.94
2021-10-11 13:05:00,,0821.4,4.99,0.00,27.2,25.9,00.0,36.4,28.8,10.6,0000.0,0002.99,0002.20,0001.95
2021-10-11 13:06:00,,0821.4,5.00,0.00,27.2,25.9,00.0,36.4,28.8,10.7,0000.0,0002.95,0002.20,0001.96
2021-10-11 13:07:00,,0821.4,5.00,0.00,27.2,25.9,00.0,36.4,28.8,10.7,0000.0,0003.34,0002.20,0001.98
2021-10-11 13:08:00,,0821.4,4.99,0.00,27.2,25.9,00.0,36.4,28.9,10.7,0000.0,0003.67,0002.19,0001.99
2021-10-11 13:09:00,,0821.4,5.00,0.00,27.2,25.9,00.0,36.4,28.9,10.6,0000.0,0003.70,0002.22,0001.99
2021-10-11 13:10:00,,0821.3,4.99,0.00,27.2,25.9,00.0,36.4,28.9,10.6,0000.0,0003.71,0002.22,0001.99
2021-10-11 13:11:00,,0821.3,5.01,0.00,27.2,25.9,00.0,36.4,28.8,10.6,0000.0,0004.04,0002.24,0001.98
2021-10-11 13:12:00,,0821.3,4.98,0.00,27.2,25.9,00.0,36.4,28.9,10.6,0000.0,0004.53,0002.28,0001.99
2021-10-11 13:13:00,,0821.3,4.99,0.00,27.1,25.9,00.0,36.4,28.9,10.8,0000.0,0004.44,0002.27,0001.98
2021-10-11 13:14:00,,0821.3,4.99,0.00,27.2,25.9,00.0,36.4,28.9,10.6,0000.0,0004.48,0002.28,0001.97
2021-10-11 13:15:00,,0821.4,5.01,0.00,27.2,26.0,00.0,36.4,28.9,10.7,0000.0,0004.33,0002.24,0001.96
2021-10-11 13:16:00,,0821.4,4.99,0.00,27.2,26.0,00.0,36.4,28.9,10.7,0000.0,0004.31,0002.21,0001.94
2021-10-11 13:17:00,,0821.4,5.01,0.00,27.2,26.0,00.0,36.4,28.9,10.8,0000.0,0004.26,0002.18,0001.93
2021-10-11 13:18:00,,0821.4,5.00,0.00,27.2,26.1,00.0,36.4,29.0,10.9,0000.0,0003.82,0002.15,0001.91
2021-10-11 13:19:00,,0821.4,4.99,0.00,27.2,26.1,00.0,36.4,29.0,10.8,0000.0,0003.38,0002.14,0001.89
2021-10-11 13:20:00,,0821.4,5.00,0.00,27.2,26.1,00.0,36.4,29.0,10.7,0000.0,0003.32,0002.10,0001.88
2021-10-11 13:21:00,,0821.4,5.00,0.00,27.2,26.2,00.0,36.4,29.0,10.7,0000.0,0003.25,0002.07,0001.87
2021-10-11 13:22:00,,0821.4,5.00,0.00,27.2,26.2,00.0,36.4,29.0,10.7,0000.0,0002.92,0002.06,0001.88
2021-10-11 13:23:00,,0821.4,5.00,0.00,27.2,26.2,00.0,36.4,29.0,10.7,0000.0,0002.37,0002.02,0001.88
2021-10-11 13:24:00,,0821.4,5.01,0.00,27.2,26.2,00.0,36.4,29.0,10.7,0000.0,0002.42,0002.04,0001.89
2021-10-11 13:25:00,,0821.4,5.01,0.00,27.2,26.2,00.0,36.3,29.0,10.8,0000.0,0002.45,0002.06,0001.89
2021-10-11 13:26:00,,0821.4,5.01,0.00,27.2,26.2,00.0,36.3,29.0,10.8,0000.0,0002.44,0002.06,0001.88
2021-10-11 13:27:00,,0821.4,4.98,0.00,27.2,26.2,00.0,36.3,29.0,10.7,0000.0,0002.44,0002.06,0001.89
2021-10-11 13:28:00,,0821.4,5.01,0.00,27.2,26.3,00.0,36.3,29.0,10.8,0000.0,0002.51,0002.08,0001.89
2021-10-11 13:29:00,,0821.4,5.00,0.00,27.2,26.2,00.0,36.3,29.0,10.7,0000.0,0002.53,0002.09,0001.90
2021-10-11 13:30:00,,0821.4,5.01,0.00,27.2,26.2,00.0,36.3,29.0,10.7,0000.0,0002.67,0002.12,0001.90
2021-10-11 13:31:00,,0821.4,4.99,0.00,27.2,26.3,00.0,36.3,29.0,10.7,0000.0,0002.79,0002.13,0001.91
2021-10-11 13:32:00,,0821.4,4.99,0.00,27.2,26.3,00.0,36.3,29.0,10.7,0000.0,0002.80,0002.14,0001.90
2021-10-11 13:33:00,,0821.4,5.00,0.00,27.2,26.3,00.0,36.3,29.0,10.7,0000.0,0002.88,0002.15,0001.89
2021-10-11 13:34:00,,0821.4,5.01,0.00,27.2,26.3,00.0,36.3,29.1,10.7,0000.0,0002.89,0002.14,0001.89
2021-10-11 13:35:00,,0821.4,4.99,0.00,27.3,26.2,00.0,36.3,29.0,10.7,0000.0,0002.87,0002.12,0001.87
2021-10-11 13:36:00,,0821.4,5.00,0.00,27.3,26.2,00.0,36.3,29.0,10.7,0000.0,0002.81,0002.09,0001.87
2021-10-11 13:37:00,,0821.4,5.00,0.00,27.3,26.2,00.0,36.4,29.1,10.7,0000.0,0002.93,0002.11,0001.88
2021-10-11 13:38:00,,0821.4,5.00,0.00,27.3,26.3,00.0,36.4,29.1,10.7,0000.0,0002.95,0002.12,0001.89
2021-10-11 13:39:00,,0821.4,5.01,0.00,27.3,26.2,00.0,36.4,29.1,10.7,0000.0,0003.01,0002.16,0001.90
2021-10-11 13:40:00,,0821.4,4.99,0.00,27.3,26.2,00.0,36.4,29.1,10.7,0000.0,0003.26,0002.20,0001.90
2021-10-11 13:41:00,,0821.4,4.99,0.00,27.3,26.2,00.0,36.4,29.1,10.7,0000.0,0003.47,0002.22,0001.91
2021-10-11 13:42:00,,0821.4,4.99,0.00,27.3,26.3,00.0,36.4,29.1,10.6,0000.0,0003.32,0002.20,0001.92
2021-10-11 13:43:00,,0821.4,5.01,0.00,27.3,26.3,00.0,36.4,29.1,10.6,0000.0,0003.32,0002.20,0001.92
2021-10-11 13:44:00,,0821.4,4.98,0.00,27.3,26.3,00.0,36.4,29.1,10.6,0000.0,0003.30,0002.19,0001.92
2021-10-11 13:45:00,,0821.4,5.02,0.00,27.3,26.3,00.0,36.4,29.1,10.7,0000.0,0003.40,0002.21,0001.94
2021-10-11 13:46:00,,0821.4,4.99,0.00,27.3,26.3,00.0,36.4,29.1,11.1,0000.0,0003.49,0002.25,0001.95
2021-10-11 13:47:00,,0821.4,5.00,0.00,27.3,26.3,00.0,36.4,29.1,11.1,0000.0,0003.53,0002.26,0001.97
2021-10-11 13:48:00,,0821.3,5.00,0.00,27.3,26.3,00.0,36.4,29.1,11.0,0000.0,0003.42,0002.26,0001.99
2021-10-11 13:49:00,,0821.3,5.01,0.00,27.3,26.4,00.0,36.4,29.2,10.9,0000.0,0003.50,0002.30,0002.00
2021-10-11 13:50:00,,0821.3,4.99,0.00,27.3,26.4,00.0,36.4,29.2,10.8,0000.0,0003.47,0002.28,0001.99
2021-10-11 13:51:00,,0821.3,5.00,0.00,27.3,26.4,00.0,36.4,29.2,10.7,0000.0,0003.31,0002.27,0002.00
2021-10-11 13:52:00,,0821.4,4.99,0.00,27.3,26.4,00.0,36.4,29.2,10.6,0000.0,0003.00,0002.26,0002.01
2021-10-11 13:53:00,,0821.3,5.01,0.00,27.3,26.4,00.0,36.4,29.1,10.9,0000.0,0003.97,0002.28,0002.02
2021-10-11 13:54:00,,0821.3,5.00,0.00,27.3,26.4,00.0,36.4,29.2,11.5,0000.0,0004.73,0002.33,0002.05
2021-10-11 13:55:00,,0821.3,5.00,0.00,27.4,26.4,00.0,36.4,29.2,11.6,0000.0,0004.77,0002.36,0002.07
2021-10-11 13:56:00,,0821.3,5.00,0.00,27.4,26.4,00.0,36.5,29.2,11.6,0000.0,0004.66,0002.37,0002.08
2021-10-11 13:57:00,,0821.3,4.99,0.00,27.4,26.5,00.0,36.5,29.2,12.1,0000.0,0004.70,0002.40,0002.11
2021-10-11 13:58:00,,0821.3,5.00,0.00,27.4,26.5,00.0,36.5,29.2,12.4,0000.0,0004.80,0002.46,0002.14
2021-10-11 13:59:00,,0821.3,5.02,0.00,27.4,26.5,00.0,36.5,29.2,12.4,0000.0,0004.90,0002.53,0002.18
